Location: Altleiningen
(49.5078°N, 8.0741°E)
Time: 00:11:17
(UTC+00:00)

Cosmos 2278 Rocket - Pass Details

Date: 03 March 2021
Orbit: 841 x 845 km, 71.0° (Epoch: 13 April)

Event Time Altitude Azimuth Distance (km) Brightness Sun altitude
Rises 18:39:17 0° 334° (NNW) 3,416 5.8 -14.6°
Reaches altitude 10° 18:42:07 10° 346° (NNW) 2,478 4.9 -15.1°
Maximum altitude 18:46:57 28° 44° (NE) 1,550 3.3 -15.9°
Enters shadow 18:48:53 23° 76° (ENE) 1,731 3.3 -16.2°
